BAW7236 ESSA-EHAM

Flight info

Callsign BAW7236
Flight time N/A
Altitude 34000
Route PETEV N872 ELPAX DCT KULUD Z703 EKDIV DCT AMRAK DCT WANZA N872 KUBAT T200 BLUFA
Aircraft A320/M-SDE3FGHIRWY/LB1

Departure

Time 2026-05-08 03:48
Airport Stockholm-Arlanda Airport (ESSA)

Arrival

Time N/A
Airport Amsterdam Airport Schiphol (EHAM)
Time Latitude Longitude Altitude Speed Heading
2026-05-08 03:28 59.64729 17.92600 117 ft 0 kts 34°
2026-05-08 03:40 59.64713 17.92579 112 ft 4 kts 34°
2026-05-08 03:40 59.64696 17.92557 112 ft 2 kts 14°
2026-05-08 03:40 59.64684 17.92558 113 ft 2 kts 296°
2026-05-08 03:40 59.64678 17.92596 113 ft 1 kts 284°
2026-05-08 03:41 59.64684 17.92558 113 ft 3 kts 286°
2026-05-08 03:41 59.64688 17.92530 112 ft 2 kts 285°
2026-05-08 03:41 59.64690 17.92511 113 ft 0 kts 285°
2026-05-08 03:41 59.64690 17.92510 113 ft 0 kts 285°
2026-05-08 03:42 59.64691 17.92508 113 ft 0 kts 285°
2026-05-08 03:43 59.64692 17.92498 114 ft 2 kts 285°
2026-05-08 03:43 59.64698 17.92453 113 ft 6 kts 285°
2026-05-08 03:43 59.64718 17.92307 115 ft 14 kts 287°
2026-05-08 03:44 59.64796 17.92238 112 ft 14 kts
2026-05-08 03:44 59.64900 17.92272 116 ft 16 kts 11°
2026-05-08 03:44 59.65002 17.92310 117 ft 12 kts 10°
2026-05-08 03:44 59.65093 17.92343 117 ft 15 kts 10°
2026-05-08 03:45 59.65201 17.92382 118 ft 17 kts 10°
2026-05-08 03:45 59.65310 17.92470 116 ft 18 kts 33°
2026-05-08 03:45 59.65409 17.92640 119 ft 20 kts 51°
2026-05-08 03:45 59.65471 17.92894 117 ft 22 kts 68°
2026-05-08 03:46 59.65517 17.93125 116 ft 16 kts 38°
2026-05-08 03:46 59.65608 17.93197 115 ft 10 kts 72°
2026-05-08 03:46 59.65644 17.93328 116 ft 14 kts 46°
2026-05-08 03:46 59.65719 17.93483 116 ft 17 kts 46°
2026-05-08 03:47 59.65807 17.93662 117 ft 19 kts 46°
2026-05-08 03:47 59.65865 17.93803 115 ft 3 kts 71°
2026-05-08 03:47 59.65873 17.93857 117 ft 16 kts 75°
2026-05-08 03:47 59.65955 17.94496 121 ft 80 kts 74°
2026-05-08 03:48 59.66146 17.95904 131 ft 128 kts 78°
2026-05-08 03:48 59.66380 17.97758 257 ft 146 kts 78°
2026-05-08 03:48 59.66619 17.99846 670 ft 166 kts 76°
2026-05-08 03:48 59.66733 18.03034 1462 ft 179 kts 109°
2026-05-08 03:49 59.66331 18.04412 2063 ft 173 kts 136°
2026-05-08 03:49 59.65309 18.05365 2877 ft 157 kts 180°
2026-05-08 03:49 59.64321 18.04661 3320 ft 155 kts 219°
2026-05-08 03:49 59.63535 18.03113 3590 ft 166 kts 225°
2026-05-08 03:50 59.62714 18.01378 3789 ft 180 kts 226°
2026-05-08 03:50 59.61825 17.99486 3976 ft 195 kts 226°
2026-05-08 03:50 59.60864 17.97441 4138 ft 210 kts 226°
2026-05-08 03:50 59.59837 17.95256 4287 ft 225 kts 226°
2026-05-08 03:51 59.58743 17.92929 4597 ft 232 kts 226°
2026-05-08 03:51 59.57641 17.90586 5073 ft 233 kts 226°
2026-05-08 03:51 59.56534 17.88235 5507 ft 235 kts 226°
2026-05-08 03:51 59.55405 17.85846 6128 ft 239 kts 227°
2026-05-08 03:52 59.54271 17.83447 6880 ft 240 kts 227°
2026-05-08 03:52 59.53128 17.81025 7584 ft 241 kts 228°
2026-05-08 03:52 59.51982 17.78603 8316 ft 242 kts 228°
2026-05-08 03:52 59.50821 17.76188 9061 ft 243 kts 228°
2026-05-08 03:53 59.49662 17.73817 9814 ft 243 kts 228°
2026-05-08 03:53 59.48463 17.71408 10482 ft 245 kts 228°
2026-05-08 03:53 59.47256 17.69009 11092 ft 248 kts 228°
2026-05-08 03:53 59.46042 17.66607 11740 ft 249 kts 228°
2026-05-08 03:54 59.44808 17.64173 12383 ft 251 kts 227°
2026-05-08 03:54 59.43568 17.61735 13008 ft 253 kts 227°
2026-05-08 03:54 59.42295 17.59296 13573 ft 259 kts 226°
2026-05-08 03:54 59.40977 17.56853 14139 ft 263 kts 226°
2026-05-08 03:55 59.39650 17.54428 14679 ft 265 kts 226°
2026-05-08 03:55 59.38301 17.51960 15235 ft 266 kts 226°
2026-05-08 03:55 59.36940 17.49470 15788 ft 268 kts 226°
2026-05-08 03:55 59.35571 17.46966 16333 ft 270 kts 226°
2026-05-08 03:56 59.34192 17.44446 16871 ft 272 kts 226°
2026-05-08 03:56 59.32805 17.41915 17405 ft 274 kts 226°
2026-05-08 03:56 59.31407 17.39361 17934 ft 276 kts 227°
2026-05-08 03:56 59.30000 17.36792 18467 ft 278 kts 227°
2026-05-08 03:57 59.28583 17.34205 18926 ft 280 kts 227°
2026-05-08 03:57 59.27154 17.31597 19362 ft 282 kts 227°
2026-05-08 03:57 59.25712 17.28971 19801 ft 284 kts 227°
2026-05-08 03:57 59.24260 17.26333 20238 ft 286 kts 226°
2026-05-08 03:58 59.22794 17.23671 20663 ft 289 kts 226°
2026-05-08 03:58 59.21314 17.20986 21062 ft 292 kts 226°
2026-05-08 03:58 59.19822 17.18283 21473 ft 294 kts 226°
2026-05-08 03:58 59.18312 17.15549 21861 ft 297 kts 226°
2026-05-08 03:59 59.16793 17.12797 22252 ft 300 kts 226°
2026-05-08 03:59 59.15256 17.10023 22635 ft 302 kts 226°
2026-05-08 03:59 59.13708 17.07229 23002 ft 305 kts 226°
2026-05-08 03:59 59.12141 17.04406 23392 ft 307 kts 226°
2026-05-08 04:00 59.10560 17.01569 23678 ft 313 kts 226°
2026-05-08 04:00 59.08931 16.98638 23819 ft 323 kts 226°
2026-05-08 04:00 59.07251 16.95618 23949 ft 333 kts 225°
2026-05-08 04:00 59.05541 16.92555 24067 ft 343 kts 225°
2026-05-08 04:01 59.03758 16.89367 24182 ft 353 kts 225°
2026-05-08 04:01 59.01925 16.86092 24319 ft 362 kts 225°
2026-05-08 04:01 59.00056 16.82755 24613 ft 367 kts 225°
2026-05-08 04:01 58.98171 16.79400 24985 ft 369 kts 225°
2026-05-08 04:02 58.96274 16.76036 25361 ft 370 kts 225°
2026-05-08 04:02 58.94370 16.72664 25744 ft 372 kts 225°
2026-05-08 04:02 58.92456 16.69277 26116 ft 374 kts 225°
2026-05-08 04:02 58.90533 16.65875 26500 ft 375 kts 225°
2026-05-08 04:03 58.88599 16.62458 26866 ft 377 kts 225°
2026-05-08 04:03 58.84690 16.55582 27615 ft 381 kts 224°
2026-05-08 04:03 58.82723 16.52130 27976 ft 383 kts 224°
2026-05-08 04:04 58.80744 16.48661 28324 ft 385 kts 224°
2026-05-08 04:04 58.78758 16.45182 28668 ft 387 kts 224°
2026-05-08 04:04 58.76785 16.41729 28996 ft 388 kts 224°
2026-05-08 04:04 58.74782 16.38231 29336 ft 390 kts 224°
2026-05-08 04:05 58.72764 16.34719 29666 ft 392 kts 224°
2026-05-08 04:05 58.70739 16.31195 29970 ft 393 kts 224°
2026-05-08 04:05 58.68705 16.27657 30285 ft 395 kts 224°
2026-05-08 04:05 58.66660 16.24100 30571 ft 397 kts 224°
2026-05-08 04:06 58.64606 16.20541 30834 ft 399 kts 224°
2026-05-08 04:06 58.62542 16.16973 31103 ft 400 kts 224°
2026-05-08 04:06 58.60462 16.13384 31373 ft 402 kts 224°
2026-05-08 04:06 58.58379 16.09798 31650 ft 404 kts 224°
2026-05-08 04:07 58.56281 16.06194 31905 ft 406 kts 224°
2026-05-08 04:07 58.54176 16.02579 32168 ft 408 kts 224°
2026-05-08 04:07 58.52055 15.98940 32425 ft 410 kts 223°
2026-05-08 04:07 58.49929 15.95300 32683 ft 411 kts 223°
2026-05-08 04:08 58.47791 15.91643 32939 ft 413 kts 223°
2026-05-08 04:08 58.45643 15.87972 33178 ft 415 kts 223°
2026-05-08 04:08 58.43481 15.84290 33424 ft 417 kts 223°
2026-05-08 04:08 58.41312 15.80605 33668 ft 419 kts 223°
2026-05-08 04:09 58.39130 15.76909 33891 ft 420 kts 223°
2026-05-08 04:09 58.36940 15.73205 34111 ft 422 kts 223°
2026-05-08 04:09 58.34742 15.69486 34249 ft 418 kts 223°
2026-05-08 04:09 58.32581 15.65833 34278 ft 417 kts 223°
2026-05-08 04:10 58.28193 15.58437 34278 ft 431 kts 222°
2026-05-08 04:10 58.23644 15.50805 34282 ft 439 kts 222°
2026-05-08 04:11 58.19058 15.43145 34272 ft 439 kts 222°
2026-05-08 04:11 58.14476 15.35509 34280 ft 439 kts 222°
2026-05-08 04:12 58.09876 15.27878 34280 ft 439 kts 222°
2026-05-08 04:12 58.05319 15.20188 34278 ft 439 kts 223°
2026-05-08 04:13 58.00809 15.12417 34277 ft 439 kts 223°
2026-05-08 04:13 57.96299 15.04675 34279 ft 438 kts 223°
2026-05-08 04:14 57.91770 14.96977 34278 ft 439 kts 222°
2026-05-08 04:14 57.87234 14.89326 34275 ft 438 kts 222°
2026-05-08 04:15 57.82721 14.81743 34272 ft 438 kts 222°
2026-05-08 04:15 57.78178 14.74132 34275 ft 438 kts 222°
2026-05-08 04:16 57.73634 14.66526 34264 ft 438 kts 222°
2026-05-08 04:16 57.69089 14.58941 34270 ft 438 kts 222°
2026-05-08 04:17 57.64529 14.51372 34264 ft 438 kts 221°
2026-05-08 04:17 57.59972 14.43840 34261 ft 438 kts 221°
2026-05-08 04:18 57.55411 14.36318 34259 ft 438 kts 221°
2026-05-08 04:18 57.50845 14.28812 34259 ft 437 kts 221°
2026-05-08 04:19 57.46306 14.21381 34254 ft 437 kts 221°
2026-05-08 04:19 57.41736 14.13927 34251 ft 437 kts 221°
2026-05-08 04:20 57.37157 14.06477 34245 ft 438 kts 221°
2026-05-08 04:20 57.32576 13.99052 34246 ft 437 kts 221°
2026-05-08 04:21 57.27993 13.91640 34247 ft 437 kts 221°
2026-05-08 04:21 57.23406 13.84264 34252 ft 437 kts 221°
2026-05-08 04:22 57.18813 13.76895 34254 ft 438 kts 221°
2026-05-08 04:22 57.14217 13.69545 34251 ft 437 kts 221°
2026-05-08 04:23 57.09611 13.62212 34252 ft 438 kts 221°
2026-05-08 04:23 57.05005 13.54909 34248 ft 437 kts 220°
2026-05-08 04:24 57.00392 13.47615 34250 ft 437 kts 220°
2026-05-08 04:24 56.95786 13.40350 34245 ft 437 kts 220°
2026-05-08 04:25 56.91167 13.33101 34243 ft 437 kts 220°
2026-05-08 04:25 56.86547 13.25870 34240 ft 437 kts 220°
2026-05-08 04:26 56.81923 13.18643 34242 ft 437 kts 220°
2026-05-08 04:26 56.77298 13.11454 34241 ft 437 kts 220°
2026-05-08 04:27 56.72668 13.04267 34247 ft 437 kts 220°
2026-05-08 04:27 56.68038 12.97113 34241 ft 436 kts 220°
2026-05-08 04:28 56.63430 12.90016 34244 ft 437 kts 220°
2026-05-08 04:28 56.58764 12.82844 34242 ft 436 kts 220°
2026-05-08 04:29 56.54155 12.75807 34234 ft 436 kts 220°
2026-05-08 04:29 56.49510 12.68726 34240 ft 436 kts 220°
2026-05-08 04:30 56.44858 12.61654 34216 ft 436 kts 220°
2026-05-08 04:30 56.40212 12.54618 34241 ft 436 kts 220°
2026-05-08 04:31 56.35569 12.47590 34238 ft 436 kts 220°
2026-05-08 04:31 56.30922 12.40581 34229 ft 435 kts 220°
2026-05-08 04:32 56.26268 12.33614 34222 ft 435 kts 219°
2026-05-08 04:32 56.22416 12.27782 34224 ft 435 kts 220°
2026-05-08 04:33 56.17844 12.20676 34237 ft 435 kts 221°
2026-05-08 04:33 56.13271 12.13579 34228 ft 434 kts 220°
2026-05-08 04:34 56.08676 12.06539 34225 ft 434 kts 220°
2026-05-08 04:34 56.04067 11.99535 34227 ft 434 kts 220°
2026-05-08 04:35 55.99503 11.92450 34224 ft 434 kts 225°
2026-05-08 04:35 55.95310 11.84691 34223 ft 434 kts 226°
2026-05-08 04:36 55.91118 11.76952 34222 ft 434 kts 226°
2026-05-08 04:36 55.86908 11.69234 34221 ft 434 kts 225°
2026-05-08 04:37 55.82690 11.61554 34223 ft 434 kts 225°
2026-05-08 04:37 55.78496 11.53937 34221 ft 433 kts 225°
2026-05-08 04:38 55.76387 11.50109 34067 ft 435 kts 223°
2026-05-08 04:38 55.74264 11.46257 34228 ft 439 kts 224°
2026-05-08 04:38 55.69920 11.38398 34224 ft 453 kts 224°
2026-05-08 04:39 55.65574 11.30267 34220 ft 455 kts 226°
2026-05-08 04:39 55.61333 11.21973 34220 ft 455 kts 226°
2026-05-08 04:40 55.57080 11.13697 34221 ft 455 kts 225°
2026-05-08 04:40 55.52789 11.05482 34223 ft 454 kts 225°
2026-05-08 04:41 55.48487 10.97322 34220 ft 454 kts 225°
2026-05-08 04:41 55.44183 10.89170 34218 ft 454 kts 225°
2026-05-08 04:42 55.39883 10.81043 34218 ft 454 kts 225°
2026-05-08 04:42 55.35597 10.72981 34216 ft 453 kts 225°
2026-05-08 04:43 55.31267 10.64846 34220 ft 453 kts 225°
2026-05-08 04:43 55.26955 10.56774 34218 ft 453 kts 225°
2026-05-08 04:44 55.22643 10.48734 34219 ft 452 kts 225°
2026-05-08 04:44 55.18361 10.40760 34217 ft 452 kts 225°
2026-05-08 04:45 55.14047 10.32759 34219 ft 452 kts 224°
2026-05-08 04:45 55.09731 10.24798 34217 ft 451 kts 224°
2026-05-08 04:46 55.05407 10.16864 34216 ft 451 kts 224°
2026-05-08 04:46 55.01086 10.08955 34218 ft 450 kts 224°
2026-05-08 04:47 54.96771 10.01057 34220 ft 450 kts 224°
2026-05-08 04:47 54.92459 9.93182 34219 ft 449 kts 224°
2026-05-08 04:48 54.88140 9.85352 34217 ft 448 kts 224°
2026-05-08 04:48 54.83817 9.77553 34220 ft 448 kts 224°
2026-05-08 04:49 54.79886 9.69157 34204 ft 449 kts 231°
2026-05-08 04:49 54.76152 9.60486 34211 ft 449 kts 231°
2026-05-08 04:50 54.72407 9.51857 34195 ft 448 kts 231°
2026-05-08 04:50 54.68681 9.43328 34192 ft 447 kts 231°
2026-05-08 04:51 54.64908 9.34707 34193 ft 446 kts 231°
2026-05-08 04:51 54.61190 9.26246 34199 ft 445 kts 231°
2026-05-08 04:52 54.57444 9.17749 34188 ft 444 kts 231°
2026-05-08 04:52 54.53705 9.09289 34196 ft 443 kts 231°
2026-05-08 04:53 54.49966 9.00849 34185 ft 443 kts 231°
2026-05-08 04:53 54.46226 8.92431 34190 ft 442 kts 231°
2026-05-08 04:54 54.42480 8.84043 34191 ft 442 kts 231°
2026-05-08 04:54 54.38735 8.75697 34195 ft 441 kts 231°
2026-05-08 04:55 54.34998 8.67368 34189 ft 440 kts 231°
2026-05-08 04:55 54.31265 8.59077 34181 ft 439 kts 231°
2026-05-08 04:56 54.27521 8.50817 34183 ft 438 kts 231°
2026-05-08 04:56 54.23784 8.42597 34185 ft 437 kts 231°
2026-05-08 04:57 54.19640 8.35140 34182 ft 436 kts 223°
2026-05-08 04:57 54.15241 8.28027 34183 ft 435 kts 223°
2026-05-08 04:58 54.10848 8.20942 34180 ft 434 kts 223°
2026-05-08 04:58 54.06457 8.13872 34173 ft 434 kts 223°
2026-05-08 04:59 54.02072 8.06810 34184 ft 434 kts 223°
2026-05-08 04:59 53.97682 7.99754 34183 ft 434 kts 223°
2026-05-08 05:00 53.93281 7.92713 34182 ft 434 kts 223°
2026-05-08 05:00 53.88879 7.85688 34182 ft 434 kts 223°
2026-05-08 05:01 53.84474 7.78687 34179 ft 434 kts 223°
2026-05-08 05:01 53.80070 7.71707 34168 ft 433 kts 223°
2026-05-08 05:02 53.75663 7.64737 34170 ft 433 kts 223°
2026-05-08 05:02 53.71269 7.57829 33755 ft 427 kts 223°
2026-05-08 05:03 53.69125 7.54459 33588 ft 415 kts 223°
2026-05-08 05:03 53.67045 7.51189 33450 ft 402 kts 223°
2026-05-08 05:03 53.65030 7.48027 33319 ft 390 kts 223°
2026-05-08 05:03 53.63073 7.44960 33185 ft 379 kts 223°
2026-05-08 05:04 53.61170 7.41982 33040 ft 368 kts 223°
2026-05-08 05:04 53.59335 7.39112 32780 ft 362 kts 223°
2026-05-08 05:04 53.57473 7.36201 32426 ft 359 kts 223°
2026-05-08 05:04 53.55674 7.33397 32066 ft 356 kts 223°
2026-05-08 05:05 53.53861 7.30578 31703 ft 354 kts 223°
2026-05-08 05:05 53.52060 7.27786 31340 ft 351 kts 223°
2026-05-08 05:05 53.50272 7.25015 30971 ft 349 kts 223°
2026-05-08 05:05 53.48494 7.22262 30605 ft 346 kts 223°
2026-05-08 05:06 53.46729 7.19532 30236 ft 344 kts 223°
2026-05-08 05:06 53.44978 7.16824 29797 ft 342 kts 223°
2026-05-08 05:06 53.43230 7.14128 29361 ft 339 kts 223°
2026-05-08 05:06 53.41500 7.11461 28931 ft 337 kts 223°
2026-05-08 05:07 53.39779 7.08810 28496 ft 335 kts 223°
2026-05-08 05:07 53.38069 7.06177 28060 ft 333 kts 223°
2026-05-08 05:07 53.36369 7.03564 27641 ft 331 kts 223°
2026-05-08 05:07 53.34679 7.00967 27230 ft 329 kts 223°
2026-05-08 05:08 53.32987 6.98412 26822 ft 327 kts 221°
2026-05-08 05:08 53.31250 6.95980 26421 ft 325 kts 220°
2026-05-08 05:08 53.29488 6.93631 26020 ft 323 kts 219°
2026-05-08 05:08 53.27717 6.91320 25623 ft 322 kts 219°
2026-05-08 05:09 53.25960 6.89033 25232 ft 320 kts 219°
2026-05-08 05:09 53.24208 6.86741 24855 ft 318 kts 219°
2026-05-08 05:09 53.22476 6.84458 24474 ft 317 kts 220°
2026-05-08 05:09 53.20755 6.82177 24116 ft 315 kts 220°
2026-05-08 05:10 53.19047 6.79902 23757 ft 314 kts 220°
2026-05-08 05:10 53.15653 6.75391 22914 ft 310 kts 220°
2026-05-08 05:10 53.13968 6.73159 22515 ft 309 kts 220°
2026-05-08 05:11 53.12289 6.70938 22116 ft 307 kts 220°
2026-05-08 05:11 53.10623 6.68733 21719 ft 305 kts 220°
2026-05-08 05:11 53.08985 6.66568 21334 ft 304 kts 220°
2026-05-08 05:11 53.07333 6.64388 20972 ft 302 kts 220°
2026-05-08 05:12 53.05686 6.62219 20603 ft 301 kts 220°
2026-05-08 05:12 53.04051 6.60068 20239 ft 299 kts 220°
2026-05-08 05:12 53.02419 6.57924 19884 ft 298 kts 220°
2026-05-08 05:12 53.00799 6.55796 19536 ft 297 kts 220°
2026-05-08 05:13 52.99183 6.53675 19193 ft 295 kts 220°
2026-05-08 05:13 52.97574 6.51562 18847 ft 294 kts 220°
2026-05-08 05:13 52.95975 6.49458 18509 ft 293 kts 220°
2026-05-08 05:13 52.94381 6.47362 18137 ft 292 kts 219°
2026-05-08 05:14 52.92792 6.45280 17757 ft 290 kts 219°
2026-05-08 05:14 52.91209 6.43212 17395 ft 289 kts 219°
2026-05-08 05:14 52.89634 6.41157 17029 ft 288 kts 219°
2026-05-08 05:14 52.88595 6.39804 16798 ft 287 kts 219°